Year,Month,Day,Hour,Minute,Value (Times are PST for temperature in C)
2016,09,18,00,00,11.10
2016,09,18,00,01,11.10
2016,09,18,00,02,11.10
2016,09,18,00,03,11.00
2016,09,18,00,04,11.00
2016,09,18,00,05,10.90
2016,09,18,00,06,10.90
2016,09,18,00,07,10.90
2016,09,18,00,08,10.90
2016,09,18,00,09,10.80
2016,09,18,00,10,10.80
2016,09,18,00,11,10.80
2016,09,18,00,12,10.80
2016,09,18,00,13,10.80
2016,09,18,00,14,10.80
2016,09,18,00,15,10.80
2016,09,18,00,16,10.80
2016,09,18,00,17,10.80
2016,09,18,00,18,10.80
2016,09,18,00,19,10.80
2016,09,18,00,20,10.80
2016,09,18,00,21,10.90
2016,09,18,00,22,10.90
2016,09,18,00,23,10.90
2016,09,18,00,24,10.80
2016,09,18,00,25,10.80
2016,09,18,00,26,10.80
2016,09,18,00,27,10.80
2016,09,18,00,28,10.80
2016,09,18,00,29,10.70
2016,09,18,00,30,10.70
2016,09,18,00,31,10.70
2016,09,18,00,32,10.60
2016,09,18,00,33,10.60
2016,09,18,00,34,10.60
2016,09,18,00,35,10.60
2016,09,18,00,36,10.60
2016,09,18,00,37,10.60
2016,09,18,00,38,10.60
2016,09,18,00,39,10.60
2016,09,18,00,40,10.60
2016,09,18,00,41,10.60
2016,09,18,00,42,10.60
2016,09,18,00,43,10.60
2016,09,18,00,44,10.60
2016,09,18,00,45,10.60
2016,09,18,00,46,10.60
2016,09,18,00,47,10.60
2016,09,18,00,48,10.60
2016,09,18,00,49,10.60
2016,09,18,00,50,10.50
2016,09,18,00,51,10.50
2016,09,18,00,52,10.50
2016,09,18,00,53,10.50
2016,09,18,00,54,10.50
2016,09,18,00,55,10.50
2016,09,18,00,56,10.50
2016,09,18,00,57,10.50
2016,09,18,00,58,10.40
2016,09,18,00,59,10.40
2016,09,18,01,00,10.40
2016,09,18,01,01,10.50
2016,09,18,01,02,10.50
2016,09,18,01,03,10.50
2016,09,18,01,04,10.50
2016,09,18,01,05,10.50
2016,09,18,01,06,10.50
2016,09,18,01,07,10.40
2016,09,18,01,08,10.40
2016,09,18,01,09,10.40
2016,09,18,01,10,10.40
2016,09,18,01,11,10.40
2016,09,18,01,12,10.40
2016,09,18,01,13,10.40
2016,09,18,01,14,10.40
2016,09,18,01,15,10.40
2016,09,18,01,16,10.40
2016,09,18,01,17,10.30
2016,09,18,01,18,10.30
2016,09,18,01,19,10.30
2016,09,18,01,20,10.30
2016,09,18,01,21,10.30
2016,09,18,01,22,10.30
2016,09,18,01,23,10.30
2016,09,18,01,24,10.30
2016,09,18,01,25,10.30
2016,09,18,01,26,10.30
2016,09,18,01,27,10.30
2016,09,18,01,28,10.30
2016,09,18,01,29,10.30
2016,09,18,01,30,10.40
2016,09,18,01,31,10.40
2016,09,18,01,32,10.40
2016,09,18,01,33,10.40
2016,09,18,01,34,10.40
2016,09,18,01,35,10.40
2016,09,18,01,36,10.30
2016,09,18,01,37,10.30
2016,09,18,01,38,10.30
2016,09,18,01,39,10.40
2016,09,18,01,40,10.40
2016,09,18,01,41,10.40
2016,09,18,01,42,10.40
2016,09,18,01,43,10.50
2016,09,18,01,44,10.50
2016,09,18,01,45,10.50
2016,09,18,01,46,10.40
2016,09,18,01,47,10.40
2016,09,18,01,48,10.40
2016,09,18,01,49,10.40
2016,09,18,01,50,10.30
2016,09,18,01,51,10.30
2016,09,18,01,52,10.30
2016,09,18,01,53,10.30
2016,09,18,01,54,10.30
2016,09,18,01,55,10.30
2016,09,18,01,56,10.30
2016,09,18,01,57,10.30
2016,09,18,01,58,10.30
2016,09,18,01,59,10.30
2016,09,18,02,00,10.30
2016,09,18,02,01,10.30
2016,09,18,02,02,10.30
2016,09,18,02,03,10.30
2016,09,18,02,04,10.30
2016,09,18,02,05,10.30
2016,09,18,02,06,10.30
2016,09,18,02,07,10.30
2016,09,18,02,08,10.30
2016,09,18,02,09,10.20
2016,09,18,02,10,10.20
2016,09,18,02,11,10.20
2016,09,18,02,12,10.20
2016,09,18,02,13,10.20
2016,09,18,02,14,10.20
2016,09,18,02,15,10.20
2016,09,18,02,16,10.20
2016,09,18,02,17,10.20
2016,09,18,02,18,10.20
2016,09,18,02,19,10.20
2016,09,18,02,20,10.20
2016,09,18,02,21,10.20
2016,09,18,02,22,10.20
2016,09,18,02,23,10.20
2016,09,18,02,24,10.10
2016,09,18,02,25,10.10
2016,09,18,02,26,10.00
2016,09,18,02,27,10.00
2016,09,18,02,28,9.90
2016,09,18,02,29,9.90
2016,09,18,02,30,9.90
2016,09,18,02,31,9.90
2016,09,18,02,32,9.90
2016,09,18,02,33,9.90
2016,09,18,02,34,10.00
2016,09,18,02,35,10.00
2016,09,18,02,36,10.00
2016,09,18,02,37,10.00
2016,09,18,02,38,10.00
2016,09,18,02,39,9.90
2016,09,18,02,40,9.90
2016,09,18,02,41,9.90
2016,09,18,02,42,9.80
2016,09,18,02,43,9.80
2016,09,18,02,44,9.80
2016,09,18,02,45,9.80
2016,09,18,02,46,9.80
2016,09,18,02,47,9.80
2016,09,18,02,48,9.70
2016,09,18,02,49,9.70
2016,09,18,02,50,9.70
2016,09,18,02,51,9.70
2016,09,18,02,52,9.70
2016,09,18,02,53,9.70
2016,09,18,02,54,9.60
2016,09,18,02,55,9.60
2016,09,18,02,56,9.60
2016,09,18,02,57,9.60
2016,09,18,02,58,9.60
2016,09,18,02,59,9.60
2016,09,18,03,00,9.60
2016,09,18,03,01,9.60
2016,09,18,03,02,9.60
2016,09,18,03,03,9.60
2016,09,18,03,04,9.60
2016,09,18,03,05,9.60
2016,09,18,03,06,9.50
2016,09,18,03,07,9.50
2016,09,18,03,08,9.50
2016,09,18,03,09,9.50
2016,09,18,03,10,9.50
2016,09,18,03,11,9.50
2016,09,18,03,12,9.50
2016,09,18,03,13,9.50
2016,09,18,03,14,9.50
2016,09,18,03,15,9.40
2016,09,18,03,16,9.40
2016,09,18,03,17,9.40
2016,09,18,03,18,9.40
2016,09,18,03,19,9.40
2016,09,18,03,20,9.40
2016,09,18,03,21,9.40
2016,09,18,03,22,9.40
2016,09,18,03,23,9.30
2016,09,18,03,24,9.30
2016,09,18,03,25,9.30
2016,09,18,03,26,9.30
2016,09,18,03,27,9.30
2016,09,18,03,28,9.30
2016,09,18,03,29,9.20
2016,09,18,03,30,9.20
2016,09,18,03,31,9.20
2016,09,18,03,32,9.20
2016,09,18,03,33,9.20
2016,09,18,03,34,9.20
2016,09,18,03,35,9.30
2016,09,18,03,36,9.30
2016,09,18,03,37,9.30
2016,09,18,03,38,9.30
2016,09,18,03,39,9.30
2016,09,18,03,40,9.30
2016,09,18,03,41,9.30
2016,09,18,03,42,9.40
2016,09,18,03,43,9.40
2016,09,18,03,44,9.40
2016,09,18,03,45,9.40
2016,09,18,03,46,9.40
2016,09,18,03,47,9.40
2016,09,18,03,48,9.40
2016,09,18,03,49,9.40
2016,09,18,03,50,9.40
2016,09,18,03,51,9.40
2016,09,18,03,52,9.40
2016,09,18,03,53,9.40
2016,09,18,03,54,9.40
2016,09,18,03,55,9.40
2016,09,18,03,56,9.40
2016,09,18,03,57,9.40
2016,09,18,03,58,9.40
2016,09,18,03,59,9.40
2016,09,18,04,00,9.40
2016,09,18,04,01,9.40
2016,09,18,04,02,9.40
2016,09,18,04,03,9.40
2016,09,18,04,04,9.40
2016,09,18,04,05,9.40
2016,09,18,04,06,9.40
2016,09,18,04,07,9.40
2016,09,18,04,08,9.40
2016,09,18,04,09,9.40
2016,09,18,04,10,9.40
2016,09,18,04,11,9.40
2016,09,18,04,12,9.40
2016,09,18,04,13,9.40
2016,09,18,04,14,9.40
2016,09,18,04,15,9.40
2016,09,18,04,16,9.40
2016,09,18,04,17,9.40
2016,09,18,04,18,9.40
2016,09,18,04,19,9.40
2016,09,18,04,20,9.50
2016,09,18,04,21,9.50
2016,09,18,04,22,9.50
2016,09,18,04,23,9.50
2016,09,18,04,24,9.50
2016,09,18,04,25,9.60
2016,09,18,04,26,9.60
2016,09,18,04,27,9.60
2016,09,18,04,28,9.60
2016,09,18,04,29,9.60
2016,09,18,04,30,9.60
2016,09,18,04,31,9.60
2016,09,18,04,32,9.60
2016,09,18,04,33,9.60
2016,09,18,04,34,9.60
2016,09,18,04,35,9.60
2016,09,18,04,36,9.60
2016,09,18,04,37,9.70
2016,09,18,04,38,9.70
2016,09,18,04,39,9.70
2016,09,18,04,40,9.70
2016,09,18,04,41,9.70
2016,09,18,04,42,9.70
2016,09,18,04,43,9.70
2016,09,18,04,44,9.70
2016,09,18,04,45,9.70
2016,09,18,04,46,9.70
2016,09,18,04,47,9.70
2016,09,18,04,48,9.70
2016,09,18,04,49,9.70
2016,09,18,04,50,9.70
2016,09,18,04,51,9.70
2016,09,18,04,52,9.70
2016,09,18,04,53,9.70
2016,09,18,04,54,9.70
2016,09,18,04,55,9.70
2016,09,18,04,56,9.70
2016,09,18,04,57,9.70
2016,09,18,04,58,9.70
2016,09,18,04,59,9.70
2016,09,18,05,00,9.70
2016,09,18,05,01,9.70
2016,09,18,05,02,9.70
2016,09,18,05,03,9.70
2016,09,18,05,04,9.70
2016,09,18,05,05,9.70
2016,09,18,05,06,9.70
2016,09,18,05,07,9.70
2016,09,18,05,08,9.70
2016,09,18,05,09,9.70
2016,09,18,05,10,9.60
2016,09,18,05,11,9.60
2016,09,18,05,12,9.60
2016,09,18,05,13,9.60
2016,09,18,05,14,9.60
2016,09,18,05,15,9.60
2016,09,18,05,16,9.60
2016,09,18,05,17,9.60
2016,09,18,05,18,9.60
2016,09,18,05,19,9.60
2016,09,18,05,20,9.60
2016,09,18,05,21,9.60
2016,09,18,05,22,9.60
2016,09,18,05,23,9.60
2016,09,18,05,24,9.60
2016,09,18,05,25,9.60
2016,09,18,05,26,9.60
2016,09,18,05,27,9.50
2016,09,18,05,28,9.50
2016,09,18,05,29,9.50
2016,09,18,05,30,9.50
2016,09,18,05,31,9.40
2016,09,18,05,32,9.40
2016,09,18,05,33,9.40
2016,09,18,05,34,9.40
2016,09,18,05,35,9.30
2016,09,18,05,36,9.30
2016,09,18,05,37,9.30
2016,09,18,05,38,9.30
2016,09,18,05,39,9.30
2016,09,18,05,40,9.30
2016,09,18,05,41,9.20
2016,09,18,05,42,9.20
2016,09,18,05,43,9.20
2016,09,18,05,44,9.20
2016,09,18,05,45,9.20
2016,09,18,05,46,9.10
2016,09,18,05,47,9.10
2016,09,18,05,48,9.10
2016,09,18,05,49,9.00
2016,09,18,05,50,9.00
2016,09,18,05,51,9.00
2016,09,18,05,52,8.90
2016,09,18,05,53,8.90
2016,09,18,05,54,8.90
2016,09,18,05,55,8.90
2016,09,18,05,56,8.90
2016,09,18,05,57,8.90
2016,09,18,05,58,8.90
2016,09,18,05,59,8.90
2016,09,18,06,00,8.90
2016,09,18,06,01,8.90
2016,09,18,06,02,8.90
2016,09,18,06,03,8.90
2016,09,18,06,04,8.90
2016,09,18,06,05,8.80
2016,09,18,06,06,8.80
2016,09,18,06,07,8.80
2016,09,18,06,08,8.80
2016,09,18,06,09,8.80
2016,09,18,06,10,8.80
2016,09,18,06,11,8.80
2016,09,18,06,12,8.80
2016,09,18,06,13,8.70
2016,09,18,06,14,8.70
2016,09,18,06,15,8.70
2016,09,18,06,16,8.70
2016,09,18,06,17,8.70
2016,09,18,06,18,8.70
2016,09,18,06,19,8.70
2016,09,18,06,20,8.70
2016,09,18,06,21,8.70
2016,09,18,06,22,8.70
2016,09,18,06,23,8.60
2016,09,18,06,24,8.60
2016,09,18,06,25,8.60
2016,09,18,06,26,8.60
2016,09,18,06,27,8.60
2016,09,18,06,28,8.60
2016,09,18,06,29,8.60
2016,09,18,06,30,8.60
2016,09,18,06,31,8.60
2016,09,18,06,32,8.50
2016,09,18,06,33,8.50
2016,09,18,06,34,8.50
2016,09,18,06,35,8.50
2016,09,18,06,36,8.50
2016,09,18,06,37,8.50
2016,09,18,06,38,8.40
2016,09,18,06,39,8.40
2016,09,18,06,40,8.40
2016,09,18,06,41,8.40
2016,09,18,06,42,8.40
2016,09,18,06,43,8.30
2016,09,18,06,44,8.30
2016,09,18,06,45,8.30
2016,09,18,06,46,8.30
2016,09,18,06,47,8.30
2016,09,18,06,48,8.30
2016,09,18,06,49,8.40
2016,09,18,06,50,8.40
2016,09,18,06,51,8.40
2016,09,18,06,52,8.40
2016,09,18,06,53,8.40
2016,09,18,06,54,8.40
2016,09,18,06,55,8.40
2016,09,18,06,56,8.40
2016,09,18,06,57,8.40
2016,09,18,06,58,8.50
2016,09,18,06,59,8.50
2016,09,18,07,00,8.50
2016,09,18,07,01,8.60
2016,09,18,07,02,8.60
2016,09,18,07,03,8.60
2016,09,18,07,04,8.60
2016,09,18,07,05,8.60
2016,09,18,07,06,8.60
2016,09,18,07,07,8.60
2016,09,18,07,08,8.60
2016,09,18,07,09,8.50
2016,09,18,07,10,8.50
2016,09,18,07,11,8.40
2016,09,18,07,12,8.40
2016,09,18,07,13,8.40
2016,09,18,07,14,8.40
2016,09,18,07,15,8.40
2016,09,18,07,16,8.40
2016,09,18,07,17,8.40
2016,09,18,07,18,8.40
2016,09,18,07,19,8.40
2016,09,18,07,20,8.40
2016,09,18,07,21,8.40
2016,09,18,07,22,8.40
2016,09,18,07,23,8.30
2016,09,18,07,24,8.30
2016,09,18,07,25,8.30
2016,09,18,07,26,8.30
2016,09,18,07,27,8.40
2016,09,18,07,28,8.40
2016,09,18,07,29,8.40
2016,09,18,07,30,8.40
2016,09,18,07,31,8.40
2016,09,18,07,32,8.50
2016,09,18,07,33,8.50
2016,09,18,07,34,8.60
2016,09,18,07,35,8.60
2016,09,18,07,36,8.70
2016,09,18,07,37,8.70
2016,09,18,07,38,8.70
2016,09,18,07,39,8.80
2016,09,18,07,40,8.80
2016,09,18,07,41,8.80
2016,09,18,07,42,8.90
2016,09,18,07,43,8.90
2016,09,18,07,44,8.90
2016,09,18,07,45,8.90
2016,09,18,07,46,8.90
2016,09,18,07,47,8.90
2016,09,18,07,48,8.90
2016,09,18,07,49,8.90
2016,09,18,07,50,9.00
2016,09,18,07,51,9.00
2016,09,18,07,52,9.10
2016,09,18,07,53,9.20
2016,09,18,07,54,9.20
2016,09,18,07,55,9.20
2016,09,18,07,56,9.30
2016,09,18,07,57,9.30
2016,09,18,07,58,9.30
2016,09,18,07,59,9.40
2016,09,18,08,00,9.40
2016,09,18,08,01,9.50
2016,09,18,08,02,9.60
2016,09,18,08,03,9.70
2016,09,18,08,04,9.70
2016,09,18,08,05,9.80
2016,09,18,08,06,9.80
2016,09,18,08,07,9.90
2016,09,18,08,08,10.00
2016,09,18,08,09,10.00
2016,09,18,08,10,10.10
2016,09,18,08,11,10.10
2016,09,18,08,12,10.20
2016,09,18,08,13,10.30
2016,09,18,08,14,10.30
2016,09,18,08,15,10.40
2016,09,18,08,16,10.50
2016,09,18,08,17,10.60
2016,09,18,08,18,10.60
2016,09,18,08,19,10.70
2016,09,18,08,20,10.80
2016,09,18,08,21,10.80
2016,09,18,08,22,10.90
2016,09,18,08,23,11.00
2016,09,18,08,24,11.10
2016,09,18,08,25,11.20
2016,09,18,08,26,11.30
2016,09,18,08,27,11.40
2016,09,18,08,28,11.40
2016,09,18,08,29,11.50
2016,09,18,08,30,11.50
2016,09,18,08,31,11.60
2016,09,18,08,32,11.70
2016,09,18,08,33,11.80
2016,09,18,08,34,11.80
2016,09,18,08,35,12.00
2016,09,18,08,36,12.10
2016,09,18,08,37,12.20
2016,09,18,08,38,12.30
2016,09,18,08,39,12.40
2016,09,18,08,40,12.50
2016,09,18,08,41,12.60
2016,09,18,08,42,12.70
2016,09,18,08,43,12.80
2016,09,18,08,44,12.80
2016,09,18,08,45,12.90
2016,09,18,08,46,13.00
2016,09,18,08,47,13.10
2016,09,18,08,48,13.20
2016,09,18,08,49,13.20
2016,09,18,08,50,13.30
2016,09,18,08,51,13.30
2016,09,18,08,52,13.40
2016,09,18,08,53,13.50
2016,09,18,08,54,13.60
2016,09,18,08,55,13.60
2016,09,18,08,56,13.70
2016,09,18,08,57,13.80
2016,09,18,08,58,14.00
2016,09,18,08,59,14.10
2016,09,18,09,00,14.20
2016,09,18,09,01,14.30
2016,09,18,09,02,14.40
2016,09,18,09,03,14.60
2016,09,18,09,04,14.70
2016,09,18,09,05,14.90
2016,09,18,09,06,15.00
2016,09,18,09,07,15.00
2016,09,18,09,08,15.00
2016,09,18,09,09,15.10
2016,09,18,09,10,15.10
2016,09,18,09,11,15.20
2016,09,18,09,12,15.30
2016,09,18,09,13,15.30
2016,09,18,09,14,15.30
2016,09,18,09,15,15.30
2016,09,18,09,16,15.30
2016,09,18,09,17,15.30
2016,09,18,09,18,15.30
2016,09,18,09,19,15.20
2016,09,18,09,20,15.20
2016,09,18,09,21,15.30
2016,09,18,09,22,15.30
2016,09,18,09,23,15.40
2016,09,18,09,24,15.40
2016,09,18,09,25,15.40
2016,09,18,09,26,15.40
2016,09,18,09,27,15.40
2016,09,18,09,28,15.40
2016,09,18,09,29,15.50
2016,09,18,09,30,15.50
2016,09,18,09,31,15.60
2016,09,18,09,32,15.70
2016,09,18,09,33,15.80
2016,09,18,09,34,15.90
2016,09,18,09,35,16.00
2016,09,18,09,36,16.10
2016,09,18,09,37,16.10
2016,09,18,09,38,16.20
2016,09,18,09,39,16.20
2016,09,18,09,40,16.30
2016,09,18,09,41,16.30
2016,09,18,09,42,16.30
2016,09,18,09,43,16.40
2016,09,18,09,44,16.40
2016,09,18,09,45,16.40
2016,09,18,09,46,16.40
2016,09,18,09,47,16.50
2016,09,18,09,48,16.50
2016,09,18,09,49,16.40
2016,09,18,09,50,16.40
2016,09,18,09,51,16.40
2016,09,18,09,52,16.50
2016,09,18,09,53,16.50
2016,09,18,09,54,16.50
2016,09,18,09,55,16.50
2016,09,18,09,56,16.50
2016,09,18,09,57,16.60
2016,09,18,09,58,16.60
2016,09,18,09,59,16.70
2016,09,18,10,00,16.70
2016,09,18,10,01,16.80
2016,09,18,10,02,16.80
2016,09,18,10,03,16.90
2016,09,18,10,04,16.90
2016,09,18,10,05,17.00
2016,09,18,10,06,17.10
2016,09,18,10,07,17.10
2016,09,18,10,08,17.10
2016,09,18,10,09,17.10
2016,09,18,10,10,17.10
2016,09,18,10,11,17.20
2016,09,18,10,12,17.20
2016,09,18,10,13,17.20
2016,09,18,10,14,17.10
2016,09,18,10,15,17.10
2016,09,18,10,16,17.00
2016,09,18,10,17,17.00
2016,09,18,10,18,16.90
2016,09,18,10,19,16.90
2016,09,18,10,20,16.90
2016,09,18,10,21,17.00
2016,09,18,10,22,17.00
2016,09,18,10,23,17.00
2016,09,18,10,24,17.10
2016,09,18,10,25,17.10
2016,09,18,10,26,17.10
2016,09,18,10,27,17.10
2016,09,18,10,28,17.10
2016,09,18,10,29,17.10
2016,09,18,10,30,17.20
2016,09,18,10,31,17.10
2016,09,18,10,32,17.20
2016,09,18,10,33,17.20
2016,09,18,10,34,17.20
2016,09,18,10,35,17.20
2016,09,18,10,36,17.30
2016,09,18,10,37,17.20
2016,09,18,10,38,17.20
2016,09,18,10,39,17.30
2016,09,18,10,40,17.30
2016,09,18,10,41,17.30
2016,09,18,10,42,17.20
2016,09,18,10,43,17.20
2016,09,18,10,44,17.20
2016,09,18,10,45,17.10
2016,09,18,10,46,17.10
2016,09,18,10,47,17.10
2016,09,18,10,48,17.10
2016,09,18,10,49,17.10
2016,09,18,10,50,17.00
2016,09,18,10,51,17.00
2016,09,18,10,52,16.90
2016,09,18,10,53,16.80
2016,09,18,10,54,16.80
2016,09,18,10,55,16.80
2016,09,18,10,56,16.80
2016,09,18,10,57,16.80
2016,09,18,10,58,16.70
2016,09,18,10,59,16.70
2016,09,18,11,00,16.70
2016,09,18,11,01,16.80
2016,09,18,11,02,16.80
2016,09,18,11,03,16.80
2016,09,18,11,04,16.80
2016,09,18,11,05,16.90
2016,09,18,11,06,16.90
2016,09,18,11,07,17.00
2016,09,18,11,08,17.10
2016,09,18,11,09,17.10
2016,09,18,11,10,17.10
2016,09,18,11,11,17.20
2016,09,18,11,12,17.20
2016,09,18,11,13,17.30
2016,09,18,11,14,17.30
2016,09,18,11,15,17.40
2016,09,18,11,16,17.50
2016,09,18,11,17,17.50
2016,09,18,11,18,17.50
2016,09,18,11,19,17.40
2016,09,18,11,20,17.40
2016,09,18,11,21,17.40
2016,09,18,11,22,17.50
2016,09,18,11,23,17.60
2016,09,18,11,24,17.70
2016,09,18,11,25,17.80
2016,09,18,11,26,18.00
2016,09,18,11,27,18.00
2016,09,18,11,28,18.10
2016,09,18,11,29,18.00
2016,09,18,11,30,17.90
2016,09,18,11,31,17.80
2016,09,18,11,32,17.80
2016,09,18,11,33,17.80
2016,09,18,11,34,17.80
2016,09,18,11,35,17.80
2016,09,18,11,36,17.70
2016,09,18,11,37,17.70
2016,09,18,11,38,17.70
2016,09,18,11,39,17.60
2016,09,18,11,40,17.60
2016,09,18,11,41,17.50
2016,09,18,11,42,17.50
2016,09,18,11,43,17.50
2016,09,18,11,44,17.50
2016,09,18,11,45,17.50
2016,09,18,11,46,17.60
2016,09,18,11,47,17.60
2016,09,18,11,48,17.60
2016,09,18,11,49,17.70
2016,09,18,11,50,17.80
2016,09,18,11,51,17.80
2016,09,18,11,52,17.90
2016,09,18,11,53,18.00
2016,09,18,11,54,18.10
2016,09,18,11,55,18.10
2016,09,18,11,56,18.10
2016,09,18,11,57,18.00
2016,09,18,11,58,18.00
2016,09,18,11,59,17.90
2016,09,18,12,00,17.90
2016,09,18,12,01,17.80
2016,09,18,12,02,17.80
2016,09,18,12,03,17.70
2016,09,18,12,04,17.70
2016,09,18,12,05,17.80
2016,09,18,12,06,17.80
2016,09,18,12,07,17.80
2016,09,18,12,08,17.90
2016,09,18,12,09,17.80
2016,09,18,12,10,17.80
2016,09,18,12,11,17.80
2016,09,18,12,12,17.70
2016,09,18,12,13,17.70
2016,09,18,12,14,17.70
2016,09,18,12,15,17.70
2016,09,18,12,16,17.80
2016,09,18,12,17,17.90
2016,09,18,12,18,17.90
2016,09,18,12,19,17.90
2016,09,18,12,20,17.90
2016,09,18,12,21,18.00
2016,09,18,12,22,17.90
2016,09,18,12,23,17.90
2016,09,18,12,24,17.90
2016,09,18,12,25,17.90
2016,09,18,12,26,18.00
2016,09,18,12,27,18.10
2016,09,18,12,28,18.10
2016,09,18,12,29,18.10
2016,09,18,12,30,18.10
2016,09,18,12,31,18.10
2016,09,18,12,32,18.10
2016,09,18,12,33,18.10
2016,09,18,12,34,18.10
2016,09,18,12,35,18.10
2016,09,18,12,36,18.00
2016,09,18,12,37,18.10
2016,09,18,12,38,18.10
2016,09,18,12,39,18.10
2016,09,18,12,40,18.10
2016,09,18,12,41,18.20
2016,09,18,12,42,18.20
2016,09,18,12,43,18.20
2016,09,18,12,44,18.20
2016,09,18,12,45,18.20
2016,09,18,12,46,18.10
2016,09,18,12,47,18.20
2016,09,18,12,48,18.10
2016,09,18,12,49,18.20
2016,09,18,12,50,18.20
2016,09,18,12,51,18.20
2016,09,18,12,52,18.20
2016,09,18,12,53,18.20
2016,09,18,12,54,18.30
2016,09,18,12,55,18.20
2016,09,18,12,56,18.20
2016,09,18,12,57,18.10
2016,09,18,12,58,18.10
2016,09,18,12,59,18.10
2016,09,18,13,00,18.10
2016,09,18,13,01,18.20
2016,09,18,13,02,18.20
2016,09,18,13,03,18.30
2016,09,18,13,04,18.40
2016,09,18,13,05,18.50
2016,09,18,13,06,18.50
2016,09,18,13,07,18.60
2016,09,18,13,08,18.60
2016,09,18,13,09,18.60
2016,09,18,13,10,18.60
2016,09,18,13,11,18.70
2016,09,18,13,12,18.70
2016,09,18,13,13,18.60
2016,09,18,13,14,18.50
2016,09,18,13,15,18.40
2016,09,18,13,16,18.40
2016,09,18,13,17,18.50
2016,09,18,13,18,18.50
2016,09,18,13,19,18.40
2016,09,18,13,20,18.40
2016,09,18,13,21,18.30
2016,09,18,13,22,18.30
2016,09,18,13,23,18.20
2016,09,18,13,24,18.20
2016,09,18,13,25,18.20
2016,09,18,13,26,18.20
2016,09,18,13,27,18.10
2016,09,18,13,28,18.00
2016,09,18,13,29,17.90
2016,09,18,13,30,17.90
2016,09,18,13,31,17.90
2016,09,18,13,32,17.80
2016,09,18,13,33,17.90
2016,09,18,13,34,17.90
2016,09,18,13,35,18.00
2016,09,18,13,36,18.10
2016,09,18,13,37,18.20
2016,09,18,13,38,18.20
2016,09,18,13,39,18.20
2016,09,18,13,40,18.20
2016,09,18,13,41,18.10
2016,09,18,13,42,18.00
2016,09,18,13,43,17.90
2016,09,18,13,44,17.80
2016,09,18,13,45,17.70
2016,09,18,13,46,17.60
2016,09,18,13,47,17.60
2016,09,18,13,48,17.60
2016,09,18,13,49,17.60
2016,09,18,13,50,17.50
2016,09,18,13,51,17.50
2016,09,18,13,52,17.40
2016,09,18,13,53,17.30
2016,09,18,13,54,17.20
2016,09,18,13,55,17.20
2016,09,18,13,56,17.10
2016,09,18,13,57,17.10
2016,09,18,13,58,17.10
2016,09,18,13,59,17.10
2016,09,18,14,00,17.10
2016,09,18,14,01,17.00
2016,09,18,14,02,16.90
2016,09,18,14,03,16.90
2016,09,18,14,04,16.80
2016,09,18,14,05,16.80
2016,09,18,14,06,16.80
2016,09,18,14,07,16.80
2016,09,18,14,08,16.70
2016,09,18,14,09,16.70
2016,09,18,14,10,16.60
2016,09,18,14,11,16.60
2016,09,18,14,12,16.50
2016,09,18,14,13,16.40
2016,09,18,14,14,16.40
2016,09,18,14,15,16.30
2016,09,18,14,16,16.20
2016,09,18,14,17,16.10
2016,09,18,14,18,16.00
2016,09,18,14,19,16.00
2016,09,18,14,20,15.90
2016,09,18,14,21,15.80
2016,09,18,14,22,15.80
2016,09,18,14,23,15.70
2016,09,18,14,24,15.70
2016,09,18,14,25,15.60
2016,09,18,14,26,15.60
2016,09,18,14,27,15.50
2016,09,18,14,28,15.50
2016,09,18,14,29,15.40
2016,09,18,14,30,15.40
2016,09,18,14,31,15.40
2016,09,18,14,32,15.40
2016,09,18,14,33,15.40
2016,09,18,14,34,15.30
2016,09,18,14,35,15.30
2016,09,18,14,36,15.30
2016,09,18,14,37,15.30
2016,09,18,14,38,15.30
2016,09,18,14,39,15.20
2016,09,18,14,40,15.20
2016,09,18,14,41,15.20
2016,09,18,14,42,15.20
2016,09,18,14,43,15.10
2016,09,18,14,44,15.10
2016,09,18,14,45,15.00
2016,09,18,14,46,15.10
2016,09,18,14,47,15.10
2016,09,18,14,48,15.10
2016,09,18,14,49,15.10
2016,09,18,14,50,15.20
2016,09,18,14,51,15.30
2016,09,18,14,52,15.30
2016,09,18,14,53,15.30
2016,09,18,14,54,15.30
2016,09,18,14,55,15.30
2016,09,18,14,56,15.20
2016,09,18,14,57,15.20
2016,09,18,14,58,15.20
2016,09,18,14,59,15.30
2016,09,18,15,00,15.30
2016,09,18,15,01,15.30
2016,09,18,15,02,15.30
2016,09,18,15,03,15.40
2016,09,18,15,04,15.40
2016,09,18,15,05,15.40
2016,09,18,15,06,15.40
2016,09,18,15,07,15.50
2016,09,18,15,08,15.50
2016,09,18,15,09,15.50
2016,09,18,15,10,15.50
2016,09,18,15,11,15.60
2016,09,18,15,12,15.70
2016,09,18,15,13,15.70
2016,09,18,15,14,15.70
2016,09,18,15,15,15.70
2016,09,18,15,16,15.70
2016,09,18,15,17,15.70
2016,09,18,15,18,15.70
2016,09,18,15,19,15.70
2016,09,18,15,20,15.60
2016,09,18,15,21,15.60
2016,09,18,15,22,15.50
2016,09,18,15,23,15.50
2016,09,18,15,24,15.50
2016,09,18,15,25,15.40
2016,09,18,15,26,15.40
2016,09,18,15,27,15.50
2016,09,18,15,28,15.60
2016,09,18,15,29,15.60
2016,09,18,15,30,15.60
2016,09,18,15,31,15.60
2016,09,18,15,32,15.70
2016,09,18,15,33,15.70
2016,09,18,15,34,15.70
2016,09,18,15,35,15.80
2016,09,18,15,36,15.80
2016,09,18,15,37,15.80
2016,09,18,15,38,15.80
2016,09,18,15,39,15.80
2016,09,18,15,40,15.80
2016,09,18,15,41,15.70
2016,09,18,15,42,15.70
2016,09,18,15,43,15.70
2016,09,18,15,44,15.70
2016,09,18,15,45,15.70
2016,09,18,15,46,15.80
2016,09,18,15,47,15.80
2016,09,18,15,48,15.80
2016,09,18,15,49,15.80
2016,09,18,15,50,15.80
2016,09,18,15,51,15.80
2016,09,18,15,52,15.80
2016,09,18,15,53,15.90
2016,09,18,15,54,15.90
2016,09,18,15,55,15.90
2016,09,18,15,56,15.90
2016,09,18,15,57,16.00
2016,09,18,15,58,16.00
2016,09,18,15,59,16.10
2016,09,18,16,00,16.10
2016,09,18,16,01,16.20
2016,09,18,16,02,16.20
2016,09,18,16,03,16.30
2016,09,18,16,04,16.40
2016,09,18,16,05,16.50
2016,09,18,16,06,16.50
2016,09,18,16,07,16.50
2016,09,18,16,08,16.50
2016,09,18,16,09,16.50
2016,09,18,16,10,16.50
2016,09,18,16,11,16.50
2016,09,18,16,12,16.60
2016,09,18,16,13,16.60
2016,09,18,16,14,16.60
2016,09,18,16,15,16.60
2016,09,18,16,16,16.60
2016,09,18,16,17,16.60
2016,09,18,16,18,16.70
2016,09,18,16,19,16.70
2016,09,18,16,20,16.70
2016,09,18,16,21,16.70
2016,09,18,16,22,16.70
2016,09,18,16,23,16.80
2016,09,18,16,24,16.80
2016,09,18,16,25,16.90
2016,09,18,16,26,16.90
2016,09,18,16,27,16.90
2016,09,18,16,28,16.90
2016,09,18,16,29,16.90
2016,09,18,16,30,16.80
2016,09,18,16,31,16.80
2016,09,18,16,32,16.80
2016,09,18,16,33,16.90
2016,09,18,16,34,16.90
2016,09,18,16,35,16.80
2016,09,18,16,36,16.80
2016,09,18,16,37,16.80
2016,09,18,16,38,16.80
2016,09,18,16,39,16.80
2016,09,18,16,40,16.80
2016,09,18,16,41,16.70
2016,09,18,16,42,16.70
2016,09,18,16,43,16.70
2016,09,18,16,44,16.70
2016,09,18,16,45,16.70
2016,09,18,16,46,16.70
2016,09,18,16,47,16.70
2016,09,18,16,48,16.80
2016,09,18,16,49,16.80
2016,09,18,16,50,16.80
2016,09,18,16,51,16.70
2016,09,18,16,52,16.70
2016,09,18,16,53,16.60
2016,09,18,16,54,16.60
2016,09,18,16,55,16.60
2016,09,18,16,56,16.50
2016,09,18,16,57,16.50
2016,09,18,16,58,16.40
2016,09,18,16,59,16.40
2016,09,18,17,00,16.40
2016,09,18,17,01,16.40
2016,09,18,17,02,16.40
2016,09,18,17,03,16.40
2016,09,18,17,04,16.30
2016,09,18,17,05,16.30
2016,09,18,17,06,16.30
2016,09,18,17,07,16.30
2016,09,18,17,08,16.30
2016,09,18,17,09,16.30
2016,09,18,17,10,16.30
2016,09,18,17,11,16.30
2016,09,18,17,12,16.30
2016,09,18,17,13,16.30
2016,09,18,17,14,16.30
2016,09,18,17,15,16.30
2016,09,18,17,16,16.30
2016,09,18,17,17,16.30
2016,09,18,17,18,16.30
2016,09,18,17,19,16.30
2016,09,18,17,20,16.30
2016,09,18,17,21,16.30
2016,09,18,17,22,16.30
2016,09,18,17,23,16.40
2016,09,18,17,24,16.40
2016,09,18,17,25,16.40
2016,09,18,17,26,16.40
2016,09,18,17,27,16.50
2016,09,18,17,28,16.50
2016,09,18,17,29,16.50
2016,09,18,17,30,16.50
2016,09,18,17,31,16.50
2016,09,18,17,32,16.50
2016,09,18,17,33,16.50
2016,09,18,17,34,16.60